Find Starlink 35375

NORAD ID: 66065 Int'l Des: 2025-235 Owner: SPXS Country: US Constellation: starlink operational
LEOCIRCULAR

当前视图

正在加载3D地球...

About Starlink 35375

Starlink 35375 (NORAD 66065) is a starlink constellation satellite (v2 mini) launched Oct 19, 2025 by SPXS of US. It operates in LEO, CIRCULAR orbit with a mass of 575.00 kg.

即将过境

Passes for default location (London). Set your location on the main map for personalized predictions.

高度历史

Loading altitude history...

两行轨道根数

1 66065U 25235H 26265.68864793 .00016218 00000-0 49010-3 0 9997
2 66065 53.1607 49.4749 0000893 81.3906 278.7198 15.34399041 53099
Epoch: Sep 22, 2026 • Age: 12 hours

当前状态

高度 467.9 km
远地点 / 近地点 N/A
速度 7.63 km/s
星下点 -18.42°S, 43.37°W
发射日期 Oct 19, 2025
运行时间 0.9 years
类型 internet

技术详情

分类 Payload
质量 575.00 kg
干质量 530.00 kg
长度 0.30 m
跨度 29.00 m
形状 ? Box + pan
制造商 SPXS
平台类型 Starlink V2MO
阶段状态 In Orbit
所有者/国家 SPXS/US

Most Searched